Location: Rumah Long Bangan
(2.8362°N, 113.7519°E)
Time: 18:10:41
(UTC+00:00)

Cosmos 2278 - Pass Details

Date: 24 October 2021
Orbit: 838 x 854 km, 71.1° (Epoch: 08 December)

Event Time Altitude Azimuth Distance (km) Brightness Sun altitude
Exits shadow 20:02:33 50° 49° (NE) 1,077 4.3 -31.5°
Maximum altitude 20:03:14 53° 75° (ENE) 1,039 4.3 -31.4°
Drops below altitude 10° 20:08:45 10° 150° (SSE) 2,472 6.6 -30.0°
Sets 20:11:15 0° 155° (SSE) 3,407 7.3 -29.4°
